This is the latest recevied weather packets stored in our database for station/object K5IDL. If no packets are shown the sender has not sent any weather packets the latest 10 day(s).
| Time | Temp. | Humidity | Pressure | Rain* | Wind** | Luminosity | Snow |
|---|---|---|---|---|---|---|---|
| 1777758880 | 25° C | 34% | 1020.1 hPa | 0 mm | - | 34 W/m² | - |
| 1777758577 | 25° C | 36% | 1020.3 hPa | 0 mm | - | 42 W/m² | - |
| 1777758274 | 25° C | 34% | 1020.1 hPa | 0 mm | - | 32 W/m² | - |
| 1777757971 | 25° C | 34% | 1020.2 hPa | 0 mm | - | 32 W/m² | - |
| 1777757667 | 25° C | 34% | 1020.3 hPa | 0 mm | - | 122 W/m² | - |
| 1777757366 | 25.56° C | 33% | 1020.4 hPa | 0 mm | - | 261 W/m² | - |
| 1777757065 | 25.56° C | 33% | 1020.5 hPa | 0 mm | - | 375 W/m² | - |
| 1777756762 | 25° C | 34% | 1020.4 hPa | 0 mm | - | 249 W/m² | - |
| 1777756457 | 25° C | 34% | 1020.4 hPa | 0 mm | - | 40 W/m² | - |
| 1777756155 | 25° C | 34% | 1020.6 hPa | 0 mm | - | 43 W/m² | - |
| 1777755852 | 25° C | 34% | 1020.7 hPa | 0 mm | - | 130 W/m² | - |
| 1777755549 | 25° C | 33% | 1020.7 hPa | 0 mm | - | 40 W/m² | - |
| 1777755245 | 24.44° C | 34% | 1021 hPa | 0 mm | - | 35 W/m² | - |
| 1777754942 | 25° C | 33% | 1020.9 hPa | 0 mm | - | 37 W/m² | - |
| 1777754639 | 25° C | 35% | 1020.9 hPa | 0 mm | - | 35 W/m² | - |
| 1777754337 | 24.44° C | 34% | 1021.1 hPa | 0 mm | - | 114 W/m² | - |
| 1777754034 | 25° C | 33% | 1021 hPa | 0 mm | - | 41 W/m² | - |
| 1777753729 | 24.44° C | 35% | 1021.1 hPa | 0 mm | - | 39 W/m² | - |
| 1777753427 | 24.44° C | 34% | 1021.3 hPa | 0 mm | - | 44 W/m² | - |
| 1777753125 | 25° C | 33% | 1021.3 hPa | 0 mm | - | 38 W/m² | - |
| 1777752821 | 24.44° C | 35% | 1021.2 hPa | 0 mm | - | 39 W/m² | - |
| 1777752517 | 24.44° C | 36% | 1021.2 hPa | 0 mm | - | 46 W/m² | - |
| 1777752213 | 24.44° C | 35% | 1021.3 hPa | 0 mm | - | 45 W/m² | - |
| 1777751911 | 24.44° C | 35% | 1021.1 hPa | 0 mm | - | 103 W/m² | - |
| 1777751608 | 24.44° C | 35% | 1021.4 hPa | 0 mm | - | 45 W/m² | - |
* Rain latest hour (hover to see other rain measurements)
** Current wind speed in m/s (hover to see current wind gust speed)